Time,TemperatureF,DewpointF,PressureIn,WindDirection,WindDirectionDegrees,WindSpeedMPH,WindSpeedGustMPH,Humidity,HourlyPrecipIn,Conditions,Clouds,dailyrainin,SoftwareType,DateUTC
2016-02-12 00:03:00,39.2,37.4,30.22,East,82,0.0,0.0,93,0.00,,CLR,0.00,VWS V13.01,2016-02-12 08:03:00,
2016-02-12 00:09:00,39.2,37.4,30.22,East,82,0.0,0.0,93,0.00,,CLR,0.00,VWS V13.01,2016-02-12 08:09:00,
2016-02-12 00:14:00,39.2,37.4,30.22,East,83,0.0,0.0,93,0.00,,CLR,0.00,VWS V13.01,2016-02-12 08:14:00,
2016-02-12 00:19:00,39.2,37.7,30.22,East,82,0.0,0.0,94,0.00,,CLR,0.00,VWS V13.01,2016-02-12 08:19:00,
2016-02-12 00:24:00,39.2,37.7,30.22,East,83,0.0,0.0,94,0.00,,CLR,0.00,VWS V13.01,2016-02-12 08:24:00,
2016-02-12 00:39:00,39.1,37.5,30.22,East,82,0.0,0.0,94,0.00,,CLR,0.00,VWS V13.01,2016-02-12 08:39:00,
2016-02-12 00:44:00,39.1,37.5,30.22,East,82,0.0,0.0,94,0.00,,CLR,0.00,VWS V13.01,2016-02-12 08:44:00,
2016-02-12 00:49:00,38.9,37.6,30.22,East,82,0.0,0.0,95,0.00,,CLR,0.00,VWS V13.01,2016-02-12 08:49:00,
2016-02-12 00:54:00,38.9,37.6,30.22,East,83,0.0,0.0,95,0.00,,CLR,0.00,VWS V13.01,2016-02-12 08:54:00,
2016-02-12 01:00:00,38.9,37.6,30.22,East,83,0.0,0.0,95,0.00,,CLR,0.00,VWS V13.01,2016-02-12 09:00:00,
2016-02-12 01:10:00,38.9,38.9,30.22,ENE,74,0.0,0.0,100,0.00,,CLR,0.00,VWS V13.01,2016-02-12 09:10:00,
2016-02-12 01:15:00,38.7,38.4,30.22,ENE,74,0.0,0.0,99,0.00,,CLR,0.00,VWS V13.01,2016-02-12 09:15:00,
2016-02-12 01:20:00,38.7,38.4,30.22,ENE,74,0.0,0.0,99,0.00,,CLR,0.00,VWS V13.01,2016-02-12 09:20:00,
2016-02-12 01:25:00,38.5,38.2,30.22,ENE,74,0.0,0.0,99,0.00,,CLR,0.00,VWS V13.01,2016-02-12 09:25:00,
2016-02-12 01:30:00,38.5,38.2,30.22,ENE,73,0.0,0.0,99,0.00,,CLR,0.00,VWS V13.01,2016-02-12 09:30:00,
2016-02-12 01:35:00,38.5,38.2,30.22,East,83,0.0,0.0,99,0.00,,CLR,0.00,VWS V13.01,2016-02-12 09:35:00,
2016-02-12 01:40:00,38.5,38.2,30.22,East,83,0.0,0.0,99,0.00,,CLR,0.00,VWS V13.01,2016-02-12 09:40:00,
2016-02-12 01:45:00,38.5,38.2,30.22,East,81,0.0,0.0,99,0.00,,CLR,0.00,VWS V13.01,2016-02-12 09:45:00,
2016-02-12 01:51:00,38.5,38.2,30.22,East,81,0.0,0.0,99,0.00,,CLR,0.00,VWS V13.01,2016-02-12 09:51:00,
2016-02-12 01:56:00,38.3,38.3,30.22,ENE,71,0.0,0.0,100,0.00,,CLR,0.00,VWS V13.01,2016-02-12 09:56:00,
2016-02-12 02:01:00,38.3,38.3,30.22,East,83,0.0,0.0,100,0.00,,CLR,0.00,VWS V13.01,2016-02-12 10:01:00,
2016-02-12 02:06:00,38.5,38.5,30.22,East,84,0.0,0.0,100,0.00,,CLR,0.00,VWS V13.01,2016-02-12 10:06:00,
2016-02-12 02:11:00,38.5,38.5,30.22,ENE,68,0.0,0.0,100,0.00,,CLR,0.00,VWS V13.01,2016-02-12 10:11:00,
2016-02-12 02:16:00,38.5,38.5,30.22,ENE,69,0.0,0.0,100,0.00,,CLR,0.00,VWS V13.01,2016-02-12 10:16:00,
2016-02-12 02:21:00,38.5,38.5,30.22,ENE,69,0.0,0.0,100,0.00,,CLR,0.00,VWS V13.01,2016-02-12 10:21:00,
2016-02-12 02:26:00,38.5,38.5,30.22,NE,51,0.0,0.0,100,0.00,,CLR,0.00,VWS V13.01,2016-02-12 10:26:00,
2016-02-12 02:32:00,38.5,38.5,30.22,ENE,59,0.0,0.0,100,0.00,,CLR,0.00,VWS V13.01,2016-02-12 10:32:00,
2016-02-12 02:37:00,38.5,38.5,30.22,NE,39,0.0,0.0,100,0.00,,CLR,0.00,VWS V13.01,2016-02-12 10:37:00,
2016-02-12 02:42:00,38.5,38.5,30.22,NE,39,0.0,0.0,100,0.00,,CLR,0.00,VWS V13.01,2016-02-12 10:42:00,
2016-02-12 02:47:00,38.3,38.3,30.22,ENE,75,0.0,0.0,100,0.00,,CLR,0.00,VWS V13.01,2016-02-12 10:47:00,
2016-02-12 02:52:00,38.3,38.3,30.22,East,86,0.0,0.0,100,0.00,,CLR,0.00,VWS V13.01,2016-02-12 10:52:00,
2016-02-12 02:57:00,38.3,38.3,30.22,East,87,0.0,0.0,100,0.00,,CLR,0.00,VWS V13.01,2016-02-12 10:57:00,
2016-02-12 03:02:00,38.3,38.3,30.22,ENE,73,0.0,8.1,100,0.00,,CLR,0.00,VWS V13.01,2016-02-12 11:02:00,
2016-02-12 03:12:00,38.2,38.2,30.22,East,79,0.0,8.1,100,0.00,,CLR,0.00,VWS V13.01,2016-02-12 11:12:00,
2016-02-12 03:17:00,38.2,38.2,30.19,East,79,0.0,8.1,100,0.00,,CLR,0.00,VWS V13.01,2016-02-12 11:17:00,
2016-02-12 03:23:00,38.2,38.2,30.19,East,79,0.0,0.0,100,0.00,,CLR,0.00,VWS V13.01,2016-02-12 11:23:00,
2016-02-12 03:28:00,38.0,38.0,30.19,East,79,0.0,0.0,100,0.00,,CLR,0.00,VWS V13.01,2016-02-12 11:28:00,
2016-02-12 03:33:00,38.0,38.0,30.19,East,79,0.0,0.0,100,0.00,,CLR,0.00,VWS V13.01,2016-02-12 11:33:00,
2016-02-12 03:38:00,38.0,38.0,30.19,East,79,0.0,0.0,100,0.00,,CLR,0.00,VWS V13.01,2016-02-12 11:38:00,
2016-02-12 03:43:00,38.0,38.0,30.22,East,79,0.0,0.0,100,0.00,,CLR,0.00,VWS V13.01,2016-02-12 11:43:00,
2016-02-12 03:48:00,38.0,38.0,30.22,ENE,76,0.0,5.4,100,0.00,,CLR,0.00,VWS V13.01,2016-02-12 11:48:00,
2016-02-12 03:58:00,38.0,38.0,30.22,ENE,69,0.0,8.1,100,0.00,,CLR,0.00,VWS V13.01,2016-02-12 11:58:00,
2016-02-12 04:03:00,38.0,38.0,30.22,East,93,0.0,0.0,100,0.00,,CLR,0.00,VWS V13.01,2016-02-12 12:03:00,
2016-02-12 04:09:00,38.0,38.0,30.22,ENE,73,0.0,0.0,100,0.00,,CLR,0.00,VWS V13.01,2016-02-12 12:09:00,
2016-02-12 04:14:00,38.0,38.0,30.19,ENE,66,0.0,8.1,100,0.00,,CLR,0.00,VWS V13.01,2016-02-12 12:14:00,
2016-02-12 04:19:00,38.0,38.0,30.19,NE,54,0.0,8.1,100,0.00,,CLR,0.00,VWS V13.01,2016-02-12 12:19:00,
2016-02-12 04:24:00,38.0,38.0,30.19,NE,54,0.0,0.0,100,0.00,,CLR,0.00,VWS V13.01,2016-02-12 12:24:00,
2016-02-12 04:29:00,38.0,38.0,30.22,NE,54,0.0,0.0,100,0.00,,CLR,0.00,VWS V13.01,2016-02-12 12:29:00,
2016-02-12 04:34:00,38.0,38.0,30.22,ENE,78,0.0,0.0,100,0.00,,CLR,0.00,VWS V13.01,2016-02-12 12:34:00,
2016-02-12 04:39:00,38.0,38.0,30.22,ENE,71,0.0,7.2,100,0.00,,CLR,0.00,VWS V13.01,2016-02-12 12:39:00,
2016-02-12 04:44:00,38.2,38.2,30.19,ENE,77,0.0,0.0,100,0.00,,CLR,0.00,VWS V13.01,2016-02-12 12:44:00,
2016-02-12 04:49:00,38.2,38.2,30.19,ENE,77,0.0,0.0,100,0.00,,CLR,0.00,VWS V13.01,2016-02-12 12:49:00,
2016-02-12 04:54:00,38.2,38.2,30.19,ENE,75,0.0,0.0,100,0.00,,CLR,0.00,VWS V13.01,2016-02-12 12:54:00,
2016-02-12 05:09:00,38.2,38.2,30.22,ENE,75,0.0,0.0,100,0.00,,CLR,0.00,VWS V13.01,2016-02-12 13:09:00,
2016-02-12 05:15:00,38.2,38.2,30.22,ENE,75,0.0,0.0,100,0.00,,CLR,0.00,VWS V13.01,2016-02-12 13:15:00,
2016-02-12 05:25:00,38.2,38.2,30.22,ENE,78,0.0,0.0,100,0.00,,CLR,0.00,VWS V13.01,2016-02-12 13:25:00,
2016-02-12 05:30:00,38.2,38.2,30.22,ENE,78,0.0,0.0,100,0.00,,CLR,0.00,VWS V13.01,2016-02-12 13:30:00,
2016-02-12 05:35:00,38.2,38.2,30.22,ENE,78,0.0,0.0,100,0.00,,CLR,0.00,VWS V13.01,2016-02-12 13:35:00,
2016-02-12 05:40:00,38.2,38.2,30.22,ENE,78,0.0,0.0,100,0.00,,CLR,0.00,VWS V13.01,2016-02-12 13:40:00,
2016-02-12 05:45:00,38.2,38.2,30.22,ENE,78,0.0,0.0,100,0.00,,CLR,0.00,VWS V13.01,2016-02-12 13:45:00,
2016-02-12 05:50:00,38.2,38.2,30.22,ENE,78,0.0,0.0,100,0.00,,CLR,0.00,VWS V13.01,2016-02-12 13:50:00,
2016-02-12 05:55:00,38.2,38.2,30.22,ENE,78,0.0,0.0,100,0.00,,CLR,0.00,VWS V13.01,2016-02-12 13:55:00,
2016-02-12 06:00:00,38.2,38.2,30.22,ENE,78,0.0,0.0,100,0.00,,CLR,0.00,VWS V13.01,2016-02-12 14:00:00,
2016-02-12 06:05:00,38.2,38.2,30.22,ENE,78,0.0,0.0,100,0.00,,CLR,0.00,VWS V13.01,2016-02-12 14:05:00,
2016-02-12 06:10:00,38.2,38.2,30.22,ENE,78,0.0,0.0,100,0.00,,CLR,0.00,VWS V13.01,2016-02-12 14:10:00,
2016-02-12 06:16:00,38.2,38.2,30.19,ENE,78,0.0,0.0,100,0.00,,CLR,0.00,VWS V13.01,2016-02-12 14:16:00,
2016-02-12 06:21:00,38.2,38.2,30.19,ENE,78,0.0,0.0,100,0.00,,CLR,0.00,VWS V13.01,2016-02-12 14:21:00,
2016-02-12 06:26:00,38.2,38.2,30.19,ENE,78,0.0,0.0,100,0.00,,CLR,0.00,VWS V13.01,2016-02-12 14:26:00,
2016-02-12 06:31:00,38.2,38.2,30.19,ENE,78,0.0,0.0,100,0.00,,CLR,0.00,VWS V13.01,2016-02-12 14:31:00,
2016-02-12 06:36:00,38.0,38.0,30.19,ENE,78,0.0,0.0,100,0.04,,CLR,0.04,VWS V13.01,2016-02-12 14:36:00,
2016-02-12 06:41:00,38.0,38.0,30.19,ENE,78,0.0,0.0,100,0.04,,CLR,0.04,VWS V13.01,2016-02-12 14:41:00,
2016-02-12 06:46:00,38.0,38.0,30.19,ENE,78,0.0,0.0,100,0.04,,CLR,0.04,VWS V13.01,2016-02-12 14:46:00,
2016-02-12 06:51:00,38.0,38.0,30.19,ENE,78,0.0,0.0,100,0.04,,CLR,0.04,VWS V13.01,2016-02-12 14:51:00,
2016-02-12 06:56:00,38.0,38.0,30.19,ENE,78,0.0,0.0,100,0.04,,CLR,0.04,VWS V13.01,2016-02-12 14:56:00,
2016-02-12 07:01:00,38.0,38.0,30.19,ENE,71,0.0,0.0,100,0.04,,CLR,0.04,VWS V13.01,2016-02-12 15:01:00,
2016-02-12 07:06:00,38.0,38.0,30.19,ENE,71,0.0,0.0,100,0.04,,CLR,0.04,VWS V13.01,2016-02-12 15:06:00,
2016-02-12 07:11:00,38.0,38.0,30.19,ENE,71,0.0,0.0,100,0.04,,CLR,0.04,VWS V13.01,2016-02-12 15:11:00,
2016-02-12 07:16:00,38.0,38.0,30.19,ENE,71,0.0,0.0,100,0.04,,CLR,0.04,VWS V13.01,2016-02-12 15:16:00,
2016-02-12 07:22:00,38.0,38.0,30.19,ENE,71,0.0,0.0,100,0.04,,CLR,0.04,VWS V13.01,2016-02-12 15:22:00,
2016-02-12 07:32:00,38.0,38.0,30.19,ENE,71,0.0,0.0,100,0.04,,CLR,0.04,VWS V13.01,2016-02-12 15:32:00,
2016-02-12 07:37:00,38.0,38.0,30.19,ENE,71,0.0,0.0,100,0.04,,CLR,0.04,VWS V13.01,2016-02-12 15:37:00,
2016-02-12 07:42:00,38.2,38.2,30.19,ENE,71,0.0,0.0,100,0.00,,CLR,0.04,VWS V13.01,2016-02-12 15:42:00,
2016-02-12 07:47:00,38.2,38.2,30.19,ENE,71,0.0,0.0,100,0.00,,CLR,0.04,VWS V13.01,2016-02-12 15:47:00,
2016-02-12 07:52:00,38.3,38.3,30.19,East,80,0.0,0.0,100,0.00,,CLR,0.04,VWS V13.01,2016-02-12 15:52:00,
2016-02-12 07:57:00,38.5,38.5,30.19,ESE,103,0.0,0.0,100,0.00,,CLR,0.04,VWS V13.01,2016-02-12 15:57:00,
2016-02-12 08:02:00,38.5,38.5,30.19,ESE,107,0.0,9.8,100,0.00,,CLR,0.04,VWS V13.01,2016-02-12 16:02:00,
2016-02-12 08:07:00,38.5,38.5,30.19,ESE,105,0.0,9.8,100,0.00,,CLR,0.04,VWS V13.01,2016-02-12 16:07:00,
2016-02-12 08:12:00,38.5,38.5,30.19,ENE,72,0.0,9.8,100,0.00,,CLR,0.04,VWS V13.01,2016-02-12 16:12:00,
2016-02-12 08:17:00,38.5,38.5,30.19,ESE,107,0.0,9.8,100,0.00,,CLR,0.04,VWS V13.01,2016-02-12 16:17:00,
2016-02-12 08:22:00,38.7,38.7,30.19,ESE,106,0.0,0.0,100,0.00,,CLR,0.04,VWS V13.01,2016-02-12 16:22:00,
2016-02-12 08:27:00,38.7,38.7,30.19,ESE,106,0.0,0.0,100,0.00,,CLR,0.04,VWS V13.01,2016-02-12 16:27:00,
2016-02-12 08:33:00,38.7,38.7,30.19,ESE,106,0.0,0.0,100,0.00,,CLR,0.04,VWS V13.01,2016-02-12 16:33:00,
2016-02-12 08:38:00,38.9,38.9,30.19,ESE,106,0.0,0.0,100,0.00,,CLR,0.04,VWS V13.01,2016-02-12 16:38:00,
2016-02-12 08:43:00,39.1,39.1,30.19,ESE,106,0.0,0.0,100,0.00,,CLR,0.04,VWS V13.01,2016-02-12 16:43:00,
2016-02-12 08:48:00,39.2,39.2,30.19,ESE,106,0.0,0.0,100,0.00,,CLR,0.04,VWS V13.01,2016-02-12 16:48:00,
2016-02-12 08:53:00,39.6,39.6,30.19,SE,138,0.0,0.0,100,0.00,,CLR,0.04,VWS V13.01,2016-02-12 16:53:00,
2016-02-12 08:58:00,39.8,39.8,30.19,SE,144,0.0,0.0,100,0.00,,CLR,0.04,VWS V13.01,2016-02-12 16:58:00,
2016-02-12 09:03:00,39.8,39.8,30.19,SE,144,0.0,0.0,100,0.00,,CLR,0.04,VWS V13.01,2016-02-12 17:03:00,
2016-02-12 09:08:00,40.0,40.0,30.19,East,97,0.0,0.0,100,0.00,,CLR,0.04,VWS V13.01,2016-02-12 17:08:00,
2016-02-12 09:13:00,40.0,40.0,30.19,East,81,0.0,0.0,100,0.00,,CLR,0.04,VWS V13.01,2016-02-12 17:13:00,
2016-02-12 09:19:00,40.0,40.0,30.19,NE,55,0.0,0.0,100,0.00,,CLR,0.04,VWS V13.01,2016-02-12 17:19:00,
2016-02-12 09:24:00,40.0,40.0,30.19,ENE,77,0.0,0.0,100,0.00,,CLR,0.04,VWS V13.01,2016-02-12 17:24:00,
2016-02-12 09:29:00,40.2,40.2,30.19,East,85,0.0,0.0,100,0.00,,CLR,0.04,VWS V13.01,2016-02-12 17:29:00,
2016-02-12 09:34:00,40.0,40.0,30.19,East,84,0.0,6.3,100,0.00,,CLR,0.04,VWS V13.01,2016-02-12 17:34:00,
2016-02-12 09:39:00,39.8,39.8,30.19,East,79,0.0,6.3,100,0.00,,CLR,0.04,VWS V13.01,2016-02-12 17:39:00,
2016-02-12 09:44:00,39.8,39.8,30.19,ENE,75,0.0,0.0,100,0.00,,CLR,0.04,VWS V13.01,2016-02-12 17:44:00,
2016-02-12 09:49:00,39.8,39.8,30.19,East,89,0.0,0.0,100,0.00,,CLR,0.04,VWS V13.01,2016-02-12 17:49:00,
2016-02-12 09:54:00,40.0,40.0,30.19,East,79,0.0,0.0,100,0.00,,CLR,0.04,VWS V13.01,2016-02-12 17:54:00,
2016-02-12 09:59:00,40.2,40.2,30.19,East,81,0.0,0.0,100,0.00,,CLR,0.04,VWS V13.01,2016-02-12 17:59:00,
2016-02-12 10:04:00,40.3,40.3,30.19,East,81,0.0,0.0,100,0.00,,CLR,0.04,VWS V13.01,2016-02-12 18:04:00,
2016-02-12 10:09:00,40.5,40.5,30.19,East,79,0.0,0.0,100,0.00,,CLR,0.04,VWS V13.01,2016-02-12 18:09:00,
2016-02-12 10:19:00,40.7,40.7,30.19,East,82,0.0,0.0,100,0.00,,CLR,0.04,VWS V13.01,2016-02-12 18:19:00,
2016-02-12 10:24:00,40.9,40.9,30.19,East,82,0.0,0.0,100,0.00,,CLR,0.04,VWS V13.01,2016-02-12 18:24:00,
2016-02-12 10:29:00,41.1,41.1,30.19,East,82,0.0,0.0,100,0.00,,CLR,0.04,VWS V13.01,2016-02-12 18:29:00,
2016-02-12 10:35:00,41.1,41.1,30.19,East,82,0.0,0.0,100,0.00,,CLR,0.04,VWS V13.01,2016-02-12 18:35:00,
2016-02-12 10:40:00,40.9,40.9,30.19,East,81,0.0,0.0,100,0.00,,CLR,0.04,VWS V13.01,2016-02-12 18:40:00,
2016-02-12 10:45:00,40.9,40.9,30.19,East,80,0.0,0.0,100,0.00,,CLR,0.04,VWS V13.01,2016-02-12 18:45:00,
2016-02-12 10:50:00,40.7,40.7,30.19,East,80,0.0,0.0,100,0.00,,CLR,0.04,VWS V13.01,2016-02-12 18:50:00,
2016-02-12 10:55:00,40.7,40.7,30.19,East,80,0.0,0.0,100,0.00,,CLR,0.04,VWS V13.01,2016-02-12 18:55:00,
2016-02-12 11:00:00,40.7,40.7,30.19,East,80,0.0,0.0,100,0.00,,CLR,0.04,VWS V13.01,2016-02-12 19:00:00,
2016-02-12 11:05:00,40.9,40.9,30.19,East,80,0.0,0.0,100,0.00,,CLR,0.04,VWS V13.01,2016-02-12 19:05:00,
2016-02-12 11:10:00,40.9,40.9,30.19,East,80,0.0,0.0,100,0.00,,CLR,0.04,VWS V13.01,2016-02-12 19:10:00,
2016-02-12 11:15:00,41.1,41.1,30.19,East,80,0.0,0.0,100,0.00,,CLR,0.04,VWS V13.01,2016-02-12 19:15:00,
2016-02-12 11:20:00,41.2,41.2,30.19,East,80,0.0,0.0,100,0.00,,CLR,0.04,VWS V13.01,2016-02-12 19:20:00,
2016-02-12 11:25:00,41.4,41.4,30.19,East,80,0.0,0.0,100,0.00,,CLR,0.04,VWS V13.01,2016-02-12 19:25:00,
2016-02-12 11:30:00,41.6,41.6,30.19,East,84,0.0,0.0,100,0.00,,CLR,0.04,VWS V13.01,2016-02-12 19:30:00,
2016-02-12 11:35:00,42.0,42.0,30.19,East,85,0.0,0.0,100,0.00,,CLR,0.04,VWS V13.01,2016-02-12 19:35:00,
2016-02-12 11:41:00,42.0,42.0,30.19,East,84,0.0,0.0,100,0.00,,CLR,0.04,VWS V13.01,2016-02-12 19:41:00,
2016-02-12 11:46:00,42.0,42.0,30.16,East,84,0.0,0.0,100,0.00,,CLR,0.04,VWS V13.01,2016-02-12 19:46:00,
2016-02-12 11:51:00,42.2,42.2,30.16,East,85,0.0,0.0,100,0.00,,CLR,0.04,VWS V13.01,2016-02-12 19:51:00,
2016-02-12 11:56:00,42.2,42.2,30.16,East,85,0.0,0.0,100,0.00,,CLR,0.04,VWS V13.01,2016-02-12 19:56:00,
2016-02-12 12:01:00,42.3,42.3,30.16,East,85,0.0,0.0,100,0.00,,CLR,0.04,VWS V13.01,2016-02-12 20:01:00,
2016-02-12 12:06:00,42.5,42.5,30.16,East,85,0.0,0.0,100,0.00,,CLR,0.04,VWS V13.01,2016-02-12 20:06:00,
2016-02-12 12:11:00,42.7,42.7,30.16,East,84,0.0,0.0,100,0.00,,CLR,0.04,VWS V13.01,2016-02-12 20:11:00,
2016-02-12 12:16:00,42.9,42.9,30.16,East,84,0.0,0.0,100,0.00,,CLR,0.04,VWS V13.01,2016-02-12 20:16:00,
2016-02-12 12:21:00,43.1,43.1,30.16,East,84,0.0,0.0,100,0.00,,CLR,0.04,VWS V13.01,2016-02-12 20:21:00,
2016-02-12 12:26:00,43.6,43.6,30.16,East,84,0.0,0.0,100,0.00,,CLR,0.04,VWS V13.01,2016-02-12 20:26:00,
2016-02-12 12:31:00,44.0,44.0,30.16,ENE,77,0.0,0.0,100,0.00,,CLR,0.04,VWS V13.01,2016-02-12 20:31:00,
2016-02-12 12:36:00,44.3,44.3,30.16,East,100,0.0,0.0,100,0.00,,CLR,0.04,VWS V13.01,2016-02-12 20:36:00,
2016-02-12 12:41:00,44.7,44.7,30.16,ESE,110,0.0,0.0,100,0.00,,CLR,0.04,VWS V13.01,2016-02-12 20:41:00,
2016-02-12 12:47:00,45.4,45.4,30.13,East,96,0.0,0.0,100,0.00,,CLR,0.04,VWS V13.01,2016-02-12 20:47:00,
2016-02-12 12:52:00,45.8,45.8,30.13,East,96,0.0,0.0,100,0.00,,CLR,0.04,VWS V13.01,2016-02-12 20:52:00,
2016-02-12 12:57:00,46.3,46.3,30.13,ENE,73,10.7,10.7,100,0.00,,CLR,0.04,VWS V13.01,2016-02-12 20:57:00,
2016-02-12 13:02:00,46.9,46.9,30.13,East,88,0.0,0.0,100,0.00,,CLR,0.04,VWS V13.01,2016-02-12 21:02:00,
2016-02-12 13:07:00,47.8,47.8,30.13,SSW,198,0.0,0.0,100,0.00,,CLR,0.04,VWS V13.01,2016-02-12 21:07:00,
2016-02-12 13:12:00,48.5,48.5,30.13,SSW,198,0.0,0.0,100,0.00,,CLR,0.04,VWS V13.01,2016-02-12 21:12:00,
2016-02-12 13:17:00,48.7,48.7,30.13,ENE,63,0.0,0.0,100,0.00,,CLR,0.04,VWS V13.01,2016-02-12 21:17:00,
2016-02-12 13:22:00,49.0,49.1,30.13,SSE,158,0.0,0.0,100,0.00,,CLR,0.04,VWS V13.01,2016-02-12 21:22:00,
2016-02-12 13:27:00,49.2,49.2,30.13,East,100,0.0,0.0,100,0.00,,CLR,0.04,VWS V13.01,2016-02-12 21:27:00,
2016-02-12 13:32:00,49.4,49.4,30.13,ESE,103,0.0,7.2,100,0.00,,CLR,0.04,VWS V13.01,2016-02-12 21:32:00,
2016-02-12 13:42:00,50.3,50.3,30.13,South,172,0.0,0.0,100,0.00,,CLR,0.04,VWS V13.01,2016-02-12 21:42:00,
2016-02-12 13:47:00,50.7,50.2,30.10,South,180,0.0,0.0,98,0.00,,CLR,0.04,VWS V13.01,2016-02-12 21:47:00,
2016-02-12 13:58:00,52.5,50.8,30.10,South,178,0.0,0.0,94,0.00,,CLR,0.04,VWS V13.01,2016-02-12 21:58:00,
2016-02-12 14:03:00,53.2,50.1,30.10,South,180,0.0,0.0,89,0.00,,CLR,0.04,VWS V13.01,2016-02-12 22:03:00,
2016-02-12 14:08:00,54.0,46.2,30.10,SSW,194,0.0,7.2,75,0.00,,CLR,0.04,VWS V13.01,2016-02-12 22:08:00,
2016-02-12 14:13:00,53.8,46.4,30.10,South,174,6.3,7.2,76,0.00,,CLR,0.04,VWS V13.01,2016-02-12 22:13:00,
2016-02-12 14:18:00,53.2,45.5,30.10,South,172,0.0,7.2,75,0.00,,CLR,0.04,VWS V13.01,2016-02-12 22:18:00,
2016-02-12 14:23:00,53.2,44.8,30.10,South,191,0.0,0.0,73,0.00,,CLR,0.04,VWS V13.01,2016-02-12 22:23:00,
2016-02-12 14:28:00,53.0,45.0,30.10,South,190,0.0,0.0,74,0.00,,CLR,0.04,VWS V13.01,2016-02-12 22:28:00,